#timestamp,LO_Frequency,Hit,StdDev 
1605481215.2,286046998.5,Y
1605481235.0,286047000.8,P
1605481235.9,286047000.8,N
1605481255.8,286047000.7,N
1605481275.6,286046999.0,N
1605481295.4,286046999.0,N
1605481315.3,286047000.6,N
1605481335.1,286047002.1,N
1605481355.8,286047002.2,N
1605481375.7,286047002.5,N
1605481395.5,286047001.6,N
1605481415.4,286047003.5,N
1605481435.2,286047005.9,Y
1605481455.0,286047003.3,P
1605481455.9,286047003.3,N
1605481475.8,286047003.3,N
1605481495.6,286047005.6,Y
1605481515.4,286047002.4,P
1605481535.3,286047002.8,P
1605481555.1,286047002.2,P
1605481605.9,286047003.7,E
1605481615.8,286047002.8,N
1605481635.6,286046999.0,P
1605481655.5,286047001.1,N
1605481675.3,286047001.2,N
1605481695.2,286047000.9,N
1605481715.9,286046998.3,N
1605481735.7,286047000.9,N
1605481755.6,286047000.3,N
1605481775.4,286046999.3,N
1605481795.2,286046997.0,N
1605481815.1,286046996.9,N
1605481816.0,286046996.9,N
1605481835.8,286046996.9,N
1605481855.7,286046996.6,N
1605481875.5,286046999.5,N
1605481895.3,286046998.3,N
1605481915.2,286046998.3,N
1605481935.9,286046999.3,N
1605481955.7,286046999.3,N
1605481975.6,286046996.8,N
1605481995.4,286046995.3,N
1605482015.2,286046997.7,N
1605482035.1,286046996.5,N
1605482036.0,286046996.5,N
1605482055.8,286046996.8,N
1605482075.7,286046999.2,N
1605482095.5,286046998.6,N
1605482115.3,286047000.7,N
1605482135.2,286046999.1,N
1605482155.0,286046997.4,N
1605482155.9,286046997.4,N
1605482175.8,286046997.2,N
1605482195.6,286046996.5,N
1605482215.4,286046996.5,N
1605482235.3,286046998.9,N
1605482255.1,286047000.1,N
1605482275.8,286046999.7,N
1605482295.7,286047002.7,N
1605482315.5,286047001.9,N
1605482335.4,286047001.8,N
1605482355.2,286047000.4,N
1605482375.0,286047000.5,N
1605482375.9,286047000.5,N
1605482395.8,286046999.0,N
1605482415.6,286047000.2,N
1605482435.4,286047001.1,N
1605482455.3,286046999.8,N
1605482475.1,286047000.3,N
1605482495.9,286047000.3,N
1605482515.7,286046999.3,N
1605482535.5,286047002.3,N
1605482555.4,286047000.7,N
1605482575.2,286046999.9,N
1605482595.0,286046999.7,N
1605482595.9,286046999.7,N
1605482615.8,286047001.2,N
1605482635.6,286046999.6,N
1605482655.4,286046996.5,N
1605482675.3,286046997.8,N
1605482695.1,286046999.5,N
1605482715.9,286046998.3,N
1605482735.7,286046999.3,N
1605482755.5,286046997.9,N
1605482775.4,286046995.0,Y
1605482795.2,286046995.5,P
1605482815.0,286046997.5,N
1605482816.0,286046997.5,N
1605482835.8,286046995.0,Y
1605482855.6,286046999.1,P
1605482875.5,286046996.8,P
1605482895.3,286046997.2,N
1605482915.1,286046995.1,Y
1605482935.9,286046998.4,P
1605482955.7,286046999.0,N
1605482975.6,286047000.8,N
1605482995.4,286047000.3,N
1605483015.2,286047002.8,N
1605483035.1,286047001.9,N
1605483036.0,286047001.9,N
1605483055.8,286047001.7,N
1605483075.6,286047002.0,N
1605483095.5,286047001.5,N
1605483115.3,286047003.9,N
1605483135.2,286047001.6,N
1605483155.9,286047002.0,N
1605483175.7,286047002.2,N
1605483195.6,286047002.5,N
1605483215.4,286047002.1,N
1605483235.2,286047000.9,N
1605483255.1,286047002.2,N
1605483256.0,286047002.2,N
1605483275.8,286047000.9,N
1605483295.7,286047000.3,N
1605483315.5,286047001.0,N
1605483335.3,286047000.2,N
1605483355.2,286047000.9,N
1605483375.9,286047002.4,N
1605483395.7,286047001.9,N
1605483415.6,286047001.8,N
1605483435.4,286047004.4,Y
1605483455.3,286046998.2,P
1605483475.1,286047002.7,N
1605483476.0,286047002.7,N
1605483495.8,286046998.1,N
1605483515.7,286046996.8,N
1605483535.5,286046997.4,N
1605483555.3,286046997.2,N
1605483575.2,286046995.1,N
1605483595.0,286046997.5,N
1605483595.9,286046997.5,N
1605483615.8,286046997.2,N
1605483635.6,286046998.4,N
1605483655.4,286046998.1,N
1605483675.3,286046999.4,N
1605483695.1,286047001.2,N
1605483715.8,286046999.0,N
1605483735.7,286046999.6,N
1605483755.5,286046999.3,N
1605483775.4,286046996.5,N
1605483795.2,286046999.4,N
1605483815.0,286046998.1,N
1605483815.9,286046998.1,N
1605483835.8,286046999.5,N
1605483855.6,286046997.3,N
1605483875.4,286046997.1,N
1605483895.3,286046996.8,N
1605483915.1,286046997.2,N
1605483935.9,286046996.5,N
1605483955.7,286046997.8,N
1605483975.5,286046999.5,N
1605483995.4,286046999.5,N
1605484015.2,286046998.2,N
1605484035.0,286046999.4,N
1605484035.9,286046999.4,N
1605484055.8,286047001.2,N
1605484075.6,286046998.7,N
1605484095.5,286046998.4,N
1605484115.3,286047001.0,N
1605484135.1,286046999.0,N
1605484155.9,286046997.0,N
1605484175.7,286046996.7,N
1605484195.6,286046997.4,N
1605484215.4,286046996.8,N
1605484235.2,286046996.5,N
1605484255.1,286046999.5,N
1605484256.0,286046999.5,N
1605484275.8,286046998.7,N
1605484295.6,286047000.4,N
1605484315.5,286046999.5,N
1605484335.3,286046997.2,N
1605484355.2,286046997.9,N
1605484375.9,286046995.5,Y
1605484395.7,286046997.1,P
1605484415.6,286046995.0,P
1605484435.4,286046997.3,N
1605484455.2,286046996.8,N
1605484475.1,286046994.9,Y
1605484476.0,286046994.9,P
1605484495.8,286047002.8,N
1605484515.7,286047000.4,N
1605484535.5,286047000.5,N
1605484555.3,286047000.4,N
1605484575.2,286046998.1,N
1605484595.0,286047000.7,N
1605484595.9,286047000.7,N
1605484615.8,286047001.8,N
1605484635.6,286047003.8,N
1605484655.4,286047003.8,N
1605484675.3,286047001.8,N
1605484695.1,286047003.9,N
1605484715.8,286047004.3,N
1605484735.7,286047005.7,N
1605484755.5,286047003.1,N
1605484775.4,286047003.7,N
1605484795.2,286047003.7,N
